Overview Statistics Trail Chart Weather Telemetry Raw packets
 

This is the latest recevied weather packets stored in our database for station/object WW6Q. If no packets are shown the sender has not sent any weather packets the latest 10 day(s).

<< 51 52 53 54 55 56 57 >>
Time Temp. Humidity Pressure Rain* Wind** Luminosity Snow
1788276765 28.89° C 70% 1015.4 hPa 0 mm - 704 W/m² -
1788276464 27.78° C 74% 1015.6 hPa 0 mm - 711 W/m² -
1788276163 27.22° C 78% 1015.2 hPa 0 mm - 427 W/m² -
1788275858 27.22° C 75% 1015.6 hPa 0 mm - 235 W/m² -
1788275553 27.78° C 74% 1015.5 hPa 0 mm - 314 W/m² -
1788275252 27.78° C 76% 1015.6 hPa 0 mm - 286 W/m² -
1788274950 28.89° C 71% 1015.5 hPa 0 mm - 331 W/m² -
1788274648 28.33° C 71% 1015.5 hPa 0 mm - 551 W/m² -
1788274348 26.67° C 77% 1015.6 hPa 0 mm - 599 W/m² -
1788274044 27.22° C 76% 1015.6 hPa 0 mm - 309 W/m² -
1788273739 27.22° C 75% 1015.6 hPa 0 mm - 269 W/m² -
1788273434 26.11° C 79% 1015.5 hPa 0 mm - 615 W/m² -
1788273130 25.56° C 79% 1015.5 hPa 0 mm - 268 W/m² -
1788272827 26.11° C 79% 1015.5 hPa 0 mm - 172 W/m² -
1788272526 26.11° C 79% 1015.5 hPa 0 mm - 203 W/m² -
1788272221 26.11° C 79% 1015.6 hPa 0 mm - 240 W/m² -
1788271921 25.56° C 79% 1015.7 hPa 0 mm - 200 W/m² -
1788271620 25.56° C 81% 1015.6 hPa 0 mm - 188 W/m² -
1788271318 25.56° C 81% 1015.4 hPa 0 mm - 176 W/m² -
1788271014 25.56° C 82% 1015.5 hPa 0 mm - 173 W/m² -
1788270708 25.56° C 82% 1015.5 hPa 0 mm - 149 W/m² -
1788270404 25.56° C 81% 1015.5 hPa 0 mm - 122 W/m² -
1788270099 25° C 82% 1015.3 hPa 0 mm - 92 W/m² -
1788269798 25.56° C 80% 1015.1 hPa 0 mm - 72 W/m² -
1788269497 25.56° C 81% 1015.2 hPa 0 mm - 79 W/m² -

* Rain latest hour (hover to see other rain measurements)
** Current wind speed in m/s (hover to see current wind gust speed)